Location: Ayer
(46.1790°N, 7.6028°E)
Time: 12:57:57
(UTC+00:00)

Daily predictions for brighter satellites

Satellite Brightness Start Highest point End
(mag) Time Altitude Azimuth Time Altitude Azimuth Time Altitude Azimuth
Cosmos 1680 Rocket 3.5 16:52:54 10° NNW 16:58:09 70° ENE 17:03:20 10° SSE
Nadezhda 4 Rocket 4.0 16:53:11 10° S 16:59:20 68° E 17:05:28 10° NNE
Meteor 2-10 Rocket 4.0 16:55:38 10° NNW 17:00:58 69° W 17:06:05 10° S
NOAA 12 4.4 16:56:52 10° S 17:02:05 77° WSW 17:07:22 10° NNW
CZ-4B R/B 2.3 17:02:00 10° NE 17:04:53 27° E 17:07:41 10° SSE
CZ-2D R/B 4.0 17:02:01 10° SE 17:05:26 32° ENE 17:08:52 10° N
Landsat 5 3.8 17:02:16 10° N 17:06:06 64° WNW 17:09:52 10° SSW
MOS 1 Rocket 4.0 17:02:54 10° NE 17:06:35 27° E 17:10:19 10° SSE
NOAA 11 4.3 17:03:56 10° SSE 17:09:27 86° WSW 17:14:59 10° NNW
Cosmos-2242 4.1 17:06:09 10° NNE 17:09:38 24° ENE 17:13:07 10° SE
NOSS 3-1 (C) 4.1 17:04:40 10° NW 17:12:10 83° NE 17:20:53 10° SE
COSMO-SKYMED 1 3.1 17:09:57 10° NNE 17:14:03 40° E 17:18:07 10° SSE
BREEZE-M DEB (TANK) 2.4 17:13:06 10° WNW 17:15:18 38° N 17:17:14 13° ENE
Cosmos 1937 Rocket 3.8 17:10:33 10° S 17:15:39 49° ESE 17:20:46 10° NNE
Cosmos 1758 Rocket 4.4 17:12:44 10° SSE 17:16:37 30° E 17:20:32 10° NNE
Aureole 3 2.7 17:14:26 10° NNW 17:17:30 78° W 17:20:28 10° S
Okean 1-7 Rocket 4.3 17:13:05 10° SSW 17:17:35 60° WNW 17:22:08 10° N
USA 290 3.0 17:18:49 10° N 17:21:40 29° ENE 17:24:30 10° SE
NOSS 2-1 (C) 3.1 17:20:20 10° SW 17:23:39 69° NW 17:27:08 10° NE
Cosmos 1833 Rocket 2.8 17:20:06 10° NNW 17:25:35 51° ENE 17:31:02 10° SE
H-2A R/B 2.6 17:23:20 10° SE 17:27:55 35° ENE 17:32:36 10° N
Meteor 1-21 Rocket 4.3 17:23:38 10° SSW 17:29:10 82° W 17:34:49 10° N
NOSS 2-1 (D) 3.3 17:26:20 10° SW 17:29:36 59° NW 17:33:04 10° NNE
Cosmos 1939 Rocket 2.9 17:26:01 10° SSE 17:30:06 87° WSW 17:34:09 10° NNW
Helios 1A Rocket 3.9 17:27:06 10° ESE 17:30:30 25° ENE 17:33:56 10° N
H-2A R/B 2.8 17:26:57 10° N 17:31:16 56° WNW 17:35:26 10° SSW
Cosmos 2344 4.3 17:22:51 10° NW 17:32:01 70° NE 17:44:50 10° SE
Cosmos 1602 Rocket 3.5 17:28:59 10° S 17:33:19 80° E 17:37:45 10° N
USA 229 DEB 3.9 17:26:18 10° NW 17:33:38 83° NE 17:41:21 10° SE
Cosmos 44 4.0 17:28:55 10° SW 17:33:39 53° NW 17:38:44 10° NNE
USA 229 3.9 17:26:24 10° NW 17:33:44 83° NE 17:41:28 10° SE
Cosmos 2026 Rocket 4.0 17:28:32 10° S 17:34:33 60° E 17:40:42 10° NNE
SeaSat 1 4.3 17:30:35 10° N 17:34:38 26° NW 17:38:41 10° WSW
CZ-3B R/B 2.0 17:32:10 10° NW 17:34:47 68° NE 17:42:26 10° ESE
Feng Yun 1-1 Rocket 4.2 17:29:55 10° SSE 17:35:24 82° ENE 17:41:04 10° NNW
CSL-04 DEB 4.3 17:31:49 10° NNE 17:35:57 88° ESE 17:39:57 10° SSW
SJ 16-02 3.1 17:32:46 10° SW 17:36:41 31° WNW 17:40:37 10° N
SKYMED 3 4.5 17:33:48 10° NNE 17:38:10 71° ESE 17:42:28 10° S
Cosmos 2112 Rocket 4.5 17:33:03 10° NNW 17:38:14 64° WSW 17:43:21 10° S
YAOGAN 1 2.9 17:35:24 10° SE 17:39:26 41° ENE 17:43:30 10° N
Cosmos 990 Rocket 4.3 17:34:52 10° SSW 17:40:02 67° WNW 17:45:13 10° NNE
Cosmos 1689 Rocket 3.0 17:41:34 25° E 17:41:53 25° E 17:44:19 10° SSE
Cosmos 1844 Rocket 4.1 17:36:53 10° WSW 17:42:02 35° NW 17:47:12 10° NNE
Cosmos 1553 Rocket 4.2 17:36:18 10° N 17:42:28 47° ENE 17:48:30 10° SSE
Aureole 3 Rocket 2.5 17:39:58 10° N 17:43:13 67° E 17:47:17 10° SSE
COSMOS 2406 3.2 17:39:12 10° NNW 17:45:01 79° ENE 17:50:46 10° SSE
Cosmos 2082 Rocket 2.6 17:39:56 10° NNW 17:45:22 42° NE 17:50:44 10° SE
HJ-1C 4.4 17:47:04 25° ENE 17:47:08 25° ENE 17:49:57 10° NNE
Cosmos 1703 3.9 17:43:35 10° SSW 17:47:23 58° W 17:51:14 10° N
Cosmos 1825 Rocket 3.8 17:44:13 10° SSE 17:48:23 46° E 17:52:39 10° NNE
IRS-1C Rocket 4.0 17:43:40 10° SSE 17:48:54 79° ENE 17:54:11 10° NNW
Meteor 1-27 4.4 17:43:53 10° N 17:49:18 48° ENE 17:54:38 10° SSE
NOSS 3-1 (A) 4.1 17:41:46 10° NW 17:49:19 88° NE 17:58:04 10° SE
X-37B 1.2 17:46:39 10° W 17:49:47 52° SSW 17:51:36 22° SE
Cosmos 1812 Rocket 3.9 17:48:07 10° NNW 17:52:29 68° W 17:56:47 10° S
ISS -2.6 17:49:36 10° WNW 17:52:40 31° N 17:53:50 24° NE
Okean O Rocket 3.7 17:51:05 10° SSW 17:54:59 30° W 17:58:53 10° NW
ATLAS 5 CENTAUR R/B 4.2 17:56:39 10° NNW 17:58:07 11° N 17:59:40 10° NNE
CZ-4 R/B 1.2 17:55:04 10° SSE 17:59:05 75° ENE 18:03:03 10° N
Iridium 4 Rocket 3.4 17:55:23 10° N 18:00:47 90° NE 18:05:41 10° S
SKYMED 2 4.0 17:57:52 10° N 18:02:12 65° WNW 18:06:29 10° SSW
ERS-2 2.0 17:58:38 10° NNE 18:02:12 72° ESE 18:05:49 10° S
CSL-04 Rocket 3.9 17:58:16 10° SE 18:03:28 48° ENE 18:08:46 10° N
Okean-O 2.5 18:02:08 10° SSE 18:06:33 80° ENE 18:11:00 10° NNW
CZ-4C R/B 4.3 18:04:33 10° NW 18:08:42 18° N 18:11:46 14° NE
S3M 4.0 18:03:02 10° N 18:08:59 51° ENE 18:14:56 10° SSE
USA 234 4.2 18:05:52 20° NE 18:09:37 34° N 18:15:23 10° WNW
Cosmos 1340 4.2 18:07:31 10° SW 18:11:01 37° WNW 18:14:33 10° N
Cosmos 1346 Rocket 2.6 18:07:29 10° S 18:11:26 84° E 18:15:12 11° NNE
Cosmos 1655 Rocket 4.2 18:05:53 10° SSE 18:11:44 45° E 18:17:36 10° NNE
Cosmos 2278 Rocket 2.1 18:06:16 10° SSW 18:11:57 88° ESE 18:17:11 13° NNE
Cosmos 1953 Rocket 3.5 18:10:36 10° S 18:14:51 58° E 18:17:58 18° NNE
CZ-2C R/B 3.9 18:09:45 10° S 18:15:09 58° W 18:20:49 10° NNW
SWARM C 4.3 18:14:12 10° S 18:17:30 72° E 18:18:11 52° NNE
SWARM A 4.0 18:14:18 10° S 18:17:37 78° E 18:18:52 35° N
Cosmos 2292 Rocket 3.5 18:14:54 10° S 18:19:41 55° E 18:20:41 42° NE
SAR-Lupe-4 3.5 18:17:50 21° NNE 18:20:08 85° WNW 18:23:43 10° SSW
Cosmos 44 Rocket 3.5 18:17:27 10° SSW 18:22:11 51° ESE 18:23:19 42° ENE
ARGOS 3.0 18:23:15 10° SSE 18:28:37 82° ENE 18:34:02 10° NNW
DMSP B5D1-3 4.4 18:23:48 10° NNE 18:28:55 80° ESE 18:34:02 10° SSW
Meteor 2-2 Rocket 4.4 18:24:41 10° N 18:30:31 52° ENE 18:34:20 22° SE
Cosmos 1869 3.5 18:27:07 10° N 18:30:11 50° NNE 18:30:11 50° NNE
PSLV R/B 4.5 18:29:18 10° N 18:33:28 59° WNW 18:37:36 10° SSW
Cosmos 372 Rocket 4.3 18:30:25 10° SSW 18:35:36 68° WNW 18:39:58 15° NNE
CZ-4B R/B 4.2 18:34:37 10° NNW 18:36:54 18° WNW 18:39:08 10° WSW
Cosmos 468 4.4 18:33:04 10° NNW 18:38:21 80° ENE 18:41:13 28° SSE
CZ-2C R/B 2.7 18:33:45 14° NNE 18:38:37 62° E 18:44:10 10° S
Cosmos 494 Rocket 3.9 18:37:12 10° NNW 18:42:19 60° ENE 18:42:29 60° ENE
Cosmos 2150 Rocket 3.8 18:39:38 10° SSW 18:44:46 77° ESE 18:45:58 53° NE
Cosmos 1048 Rocket 3.9 18:42:10 10° NNW 18:47:20 88° WSW 18:49:36 35° SSE
Cosmos 2297 4.1 18:47:05 10° S 18:51:23 44° SSE 18:51:23 44° SSE
SL-08 RB Rocket 3.9 18:59:18 49° SSW 19:00:23 69° WSW 19:04:52 10° NNW
H-2A R/B 3.7 19:02:47 10° SSW 19:07:19 33° W 19:12:01 10° NNW
Cosmos 1125 Rocket 3.6 19:04:13 10° SSW 19:08:41 66° SSW 19:08:41 66° SSW
Cosmos 2298 Rocket 4.4 19:06:55 10° SW 19:12:10 61° WNW 19:13:35 45° N
Cosmos 2266 Rocket 4.0 19:07:40 10° SSW 19:13:56 77° W 19:20:05 10° N
NOSS 2-2 (C) 4.4 19:14:47 10° NW 19:20:07 83° NNE 19:20:07 83° NNE
X-37B 4.2 19:23:50 10° WSW 19:23:54 10° WSW 19:23:54 10° WSW
Cosmos 1943 Rocket 4.3 19:22:29 10° S 19:23:18 15° S 19:23:18 15° S
Cosmos 2082 Rocket 3.7 19:24:14 10° NW 19:29:21 34° WSW 19:33:42 13° SSW
ISS -0.4 19:26:34 10° WNW 19:26:49 12° WNW 19:26:49 12° WNW
Cosmos 2315 Rocket 4.4 19:40:32 10° NNW 19:46:33 58° W 19:46:33 58° W
ATLAS 2AS CENTAUR R/B 4.2 19:43:17 10° NNW 19:48:21 26° N 19:48:21 26° N
USA 234 4.0 19:53:13 42° NNW 19:53:13 42° NNW 19:58:02 10° NW
Cosmos 2278 Rocket 4.4 19:52:47 10° W 19:56:50 20° NW 19:59:05 16° NNW
CZ-4C R/B 4.2 19:53:25 10° NNW 19:56:58 26° N 19:56:58 26° N
